Home > Weather > Yazd > Past weeks

Flag for Iran Weather for the Past 2 Weeks in Yazd, Iran

Now
55 °F

Passing clouds.


Feels Like: 54 °F
Forecast: 49 / 69 °F
Wind: 7 mph from Southeast

Location: Yazd Airport

Current Time: Feb 7, 2016 at 9:21:03 AM

Latest Report: Feb 7, 2016 at 9:00 AM


Visibility: N/A

Pressure: 30.04 "Hg (25.97 "Hg at 1218m altitude)

Humidity: 9%

Dew point: -2 °F

Location of YazdLocation

Historic Weather in Yazd — Graph

°F

Yazd Temperature Yesterday

Maximum temperature yesterday: 73 °F (at 2:30 PM)
Minimum temperature yesterday: 39 °F (at 5:30 AM)
Average temperature yesterday: 56 °F

High & Low Weather Summary for the Past Weeks

 TemperatureHumidityPressure
High73 °F (Feb 6, 2:30 PM)82% (Jan 25, 7:00 AM)30.45 "Hg (Jan 25, 7:00 AM)
Low27 °F (Jan 31, 6:00 AM)4% (Feb 6, 2:30 PM)29.86 "Hg (Jan 25, 2:30 PM)
Average49 °F25%30.15 "Hg
* Reported Jan 23 8:00 AM — Feb 7 8:00 AM, Yazd, Weather by CustomWeather, © 2016

Note: Actual official high and low records may vary slightly from our data, if they occured in-between our weather recording intervals... More about our weather records

Advertising

Yazd Weather History for the Previous 24 Hours

 ConditionsComfort  
Time TempWeatherWind HumidityBarometerVisibility
8:00 AM
Sun, Feb 7
50 °FScattered clouds.7 mph12%30.04 "HgN/A
7:30 AM48 °FPassing clouds.5 mph13%30.01 "HgN/A
7:00 AM46 °FPassing clouds.7 mph14%30.01 "HgN/A
6:30 AM48 °FPassing clouds.7 mph13%30.01 "HgN/A
6:00 AM48 °FClear.7 mph12%29.98 "Hg10 mi
5:30 AM48 °FClear.9 mph12%29.98 "Hg10 mi
4:30 AM50 °FClear.12 mph11%29.98 "Hg10 mi
3:30 AM50 °FClear.9 mph11%29.95 "Hg10 mi
2:20 AM52 °FCool.7 mph10%29.98 "HgN/A
1:20 AM50 °FCool.9 mph10%29.98 "HgN/A
12:30 AM50 °FClear.7 mph10%29.98 "Hg10 mi
11:30 PM
Sat, Feb 6
50 °FClear.7 mph12%30.01 "Hg10 mi
10:30 PM54 °FClear.7 mph11%30.01 "Hg10 mi
10:00 PM55 °FClear.7 mph8%30.01 "Hg10 mi
9:30 PM57 °FClear.7 mph7%30.01 "Hg10 mi
9:00 PM59 °FClear.9 mph7%30.04 "Hg10 mi
8:30 PM61 °FClear.9 mph6%30.04 "Hg10 mi
8:00 PM61 °FClear.7 mph6%30.01 "Hg10 mi
7:30 PM63 °FClear.7 mph6%30.01 "Hg10 mi
7:00 PM61 °FClear.9 mph6%30.01 "Hg10 mi
6:30 PM63 °FClear.2 mph6%30.01 "Hg10 mi
6:00 PM66 °FClear.5 mph5%30.01 "Hg10 mi
5:30 PM70 °FSunny.5 mph5%30.01 "Hg10 mi
5:00 PM72 °FSunny.7 mph4%30.01 "Hg10 mi
4:30 PM72 °FSunny.7 mph4%30.01 "Hg10 mi
3:20 PM73 °FSunny.7 mph4%30.04 "Hg10 mi
2:30 PM73 °FSunny.7 mph4%30.04 "Hg10 mi
1:30 PM70 °FSunny.9 mph5%30.07 "Hg10 mi
12:30 PM68 °FSunny.9 mph5%30.12 "Hg10 mi
11:30 AM63 °FSunny.12 mph7%30.15 "Hg10 mi
11:00 AM59 °FSunny.9 mph9%30.18 "Hg10 mi
10:30 AM57 °FSunny.9 mph10%30.18 "Hg10 mi
10:00 AM54 °FSunny.12 mph12%30.21 "Hg10 mi
9:30 AM50 °FSunny.12 mph14%30.21 "Hg10 mi
9:00 AM48 °FSunny.9 mph15%30.21 "Hg10 mi
Weather by CustomWeather, © 2016

See weather overviewHow to use our weather pages